[Iaude] MPEC S213: 2023 SJ6 [a=3.42,e=0.64,i=30.6,H=22.8]
    mpec at marsden.cfa.harvard.edu 
    mpec at marsden.cfa.harvard.edu
       
    Mon Sep 25 13:57:43 EDT 2023
    
    
  
M.P.E.C. 2023-S213                           Issued 2023 September 25, 17:56 UT
     The Minor Planet Electronic Circulars contain information on unusual
         minor planets, routine data on comets and natural satellites,
         and occasional editorial announcements.  They are published
    on behalf of Division F of the International Astronomical Union by the
          Minor Planet Center, Smithsonian Astrophysical Observatory,
                          Cambridge, MA 02138, U.S.A.
			  
             Prepared using the Tamkin Foundation Computer Network
                              MPC at CFA.HARVARD.EDU
            URL https://www.minorplanetcenter.net/    ISSN 1523-6714
                                    2023 SJ6                                    
Observations:
     K23S06J* C2023 09 20.44287623 49 30.420-21 41 40.54         21.03wXES213F51
     K23S06J  C2023 09 20.45466023 49 27.408-21 40 10.61         21.36wXES213F51
     K23S06J  C2023 09 20.46645123 49 24.406-21 38 41.26         21.58wXES213F51
     K23S06J KC2023 09 20.53915423 49 06.054-21 29 28.03         21.48GVES213F51
     K23S06J  C2023 09 21.41967323 45 39.560-19 38 05.00         20.77GVES213F51
     K23S06J  C2023 09 21.42048623 45 39.354-19 37 57.33         20.32GVES213F51
     K23S06J  C2023 09 21.42130323 45 39.145-19 37 51.48         20.72GVES213F51
     K23S06J  C2023 09 21.42211723 45 38.953-19 37 45.25         20.73GVES213F51
     K23S06J  C2023 09 23.42142723 38 09.719-15 25 08.56               VES213F51
     K23S06J  C2023 09 23.42293623 38 09.402-15 24 58.15               VES213F51
     K23S06J  C2023 09 24.23023923 35 18.380-13 44 02.12         21.1 GVES213654
     K23S06J  C2023 09 24.24215223 35 15.766-13 42 33.36         21.1 GVES213654
     K23S06J  C2023 09 24.33017923 34 56.298-13 31 36.34         21.1 GVES213654
     K23S06J  C2023 09 24.34220723 34 53.646-13 30 06.45         21.1 GVES213654
Observer details:
654 Table Mountain Observatory, Wrightwood-PHMC.  Observers N. Evans, P. Choi,
    N. Saini, C. Zhai, R. Trahan, M. Shao.  1.0-m Reflector + CCD.
F51 Pan-STARRS 1, Haleakala.  Observers J. Bulger, T. Lowe, P. Minguez, A.
    Schultz, I. Smith, K. Chambers.  Measurers K. Chambers, T. de Boer, J.
    Bulger, J. Fairlamb, H. Gao, M. Huber, C.-C. Lin, T. Lowe, E. Magnier, P.
    Minguez, Y. Ramanjooloo, A. Schultz, I. Smith, R. Wainscoat, R. Weryk, S.
    Chastel.  1.8-m Ritchey-Chretien + CCD.
Orbital elements:
2023 SJ6                                                 Earth MOID = 0.2559 AU
Epoch 2023 Sept. 13.0 TT = JDT 2460200.5                Alexandersen            
M   1.74349              (2000.0)            P               Q                  
n   0.15603406     Peri.  335.41235     +0.91998718     +0.39163147             
a   3.4170902      Node     1.77532     -0.21846462     +0.54575244             
e   0.6405529      Incl.   30.57767     -0.32541787     +0.74079623             
P   6.32           H   22.84          G   0.15           U   9                  
Residuals in seconds of arc
230920 F51  0.0   0.3-    230921 F51  0.0   0.6+    230924 654  0.0   0.1+
230920 F51  0.1-  0.2+    230921 F51  0.1-  0.3+    230924 654  0.2+  0.0
230920 F51  0.2-  0.0     230921 F51  0.0   0.3+    230924 654  0.1-  0.1-
230920 F51  0.2+  0.2-    230923 F51  0.4-  0.6+    230924 654  0.1-  0.1-
230921 F51  0.1+  0.9-    230923 F51  0.1+  0.3-
Ephemeris:
2023 SJ6                 a,e,i = 3.42, 0.64, 31                  q = 1.2283
Date    TT    R. A. (2000) Decl.     Delta      r    Elong.  Phase     V
2023 08 26    01 48 08.4 -57 12 58   0.3702  1.2312   118.5    46.2    22.9
...
2023 09 10    00 37 07.3 -41 26 53   0.2801  1.2324   139.0    32.4    21.9
...
2023 09 18    23 59 40.6 -26 46 30   0.2589  1.2445   154.9    20.0    21.4
...
2023 09 24    23 36 06.2 -14 12 27   0.2629  1.2586   164.3    12.4    21.2
2023 09 25    23 32 38.8 -12 08 21   0.2654  1.2613   165.0    11.9    21.2
2023 09 26    23 29 19.8 -10 06 12   0.2683  1.2642   165.3    11.6    21.2
...
2023 10 02    23 12 21.0 +01 04 29   0.2957  1.2835   160.4    15.1    21.6
...
2023 10 10    22 56 59.2 +12 26 18   0.3534  1.3150   149.2    22.9    22.3
...
2023 10 25    22 46 18.2 +24 43 10   0.5024  1.3892   133.5    31.3    23.4
M. P. C. Staff               (C) Copyright 2023 MPC           M.P.E.C. 2023-S213
    
    
More information about the Iaude
mailing list